Location: Newark
(47.0167°N, 8.3000°E)
Time: 12:13:55
(UTC+00:00)

ISS - Visible Passes

Search period start: 17 September 2019 00:00
Search period end: 27 September 2019 00:00
Orbit: 411 x 421 km, 51.6° (Epoch: 17 September)

Date Brightness Start Highest point End Pass type
(mag) Time Alt. Az. Time Alt. Az. Time Alt. Az.
18 Sep -1.3 19:24:33 10° SSW 19:24:56 12° SSW 19:24:56 12° SSW visible
19 Sep -2.2 18:36:48 10° S 18:39:10 18° SE 18:39:19 18° SE visible
19 Sep -0.7 20:12:14 10° WSW 20:12:16 10° WSW 20:12:16 10° WSW visible
20 Sep -3.2 19:23:49 10° SW 19:26:23 48° SSW 19:26:23 48° SSW visible
21 Sep -3.3 18:35:32 10° SW 18:38:42 42° SE 18:40:17 24° E visible
21 Sep -1.1 20:12:11 10° W 20:13:12 18° W 20:13:12 18° W visible
22 Sep -3.5 19:23:34 10° WSW 19:26:52 64° NNW 19:26:55 63° NNW visible
23 Sep -3.8 18:35:01 10° WSW 18:38:21 89° NW 18:40:30 20° ENE visible
23 Sep -1.0 20:12:13 10° WNW 20:13:24 19° WNW 20:13:24 19° WNW visible
24 Sep -3.7 17:46:35 10° SW 17:49:52 61° SSE 17:53:09 10° ENE visible
24 Sep -2.8 19:23:33 10° W 19:26:44 41° N 19:26:53 41° N visible
25 Sep -3.1 18:34:52 10° W 18:38:07 50° NNW 18:40:17 19° NE visible
25 Sep -0.8 20:12:10 10° WNW 20:13:10 17° NW 20:13:10 17° NW visible
26 Sep -3.5 17:46:14 10° WSW 17:49:32 67° NNW 17:52:51 10° ENE visible
26 Sep -2.5 19:23:31 10° WNW 19:26:30 35° N 19:26:30 35° N visible
